| time (UTC) | temp C | wind direction | speed KPH | gust KPH | rain 1hr cm | rain 24hr cm | rain mn cm | humidity % | barometer mb |
| 20260502210841 | 11 | 186 | 0.0 | 0.0 | 0.00 | 0.48 | 0.48 | 92 | 1010.8 |
| 20260502210339 | 11 | 186 | 0.0 | 0.0 | 0.00 | 0.48 | 0.48 | 92 | 1010.7 |
| 20260502205836 | 11 | 186 | 0.0 | 0.0 | 0.00 | 0.48 | 0.48 | 92 | 1010.7 |
| 20260502205335 | 11 | 186 | 0.0 | 0.0 | 0.00 | 0.48 | 0.48 | 92 | 1010.7 |
| 20260502204833 | 11 | 186 | 0.0 | 0.0 | 0.00 | 0.48 | 0.48 | 92 | 1010.6 |
| 20260502204331 | 11 | 186 | 0.0 | 0.0 | 0.00 | 0.48 | 0.48 | 92 | 1010.8 |
| 20260502203830 | 11 | 186 | 0.0 | 0.0 | 0.00 | 0.48 | 0.48 | 92 | 1010.8 |
| 20260502203330 | 11 | 186 | 0.0 | 0.0 | 0.00 | 0.48 | 0.48 | 92 | 1010.9 |
| 20260502202830 | 11 | 186 | 0.0 | 0.0 | 0.00 | 0.48 | 0.48 | 92 | 1011.0 |
| 20260502202330 | 11 | 186 | 0.0 | 0.0 | 0.00 | 0.48 | 0.48 | 92 | 1010.9 |
| 20260502201831 | 11 | 186 | 0.0 | 0.0 | 0.00 | 0.48 | 0.48 | 92 | 1011.1 |
| 20260502201330 | 11 | 186 | 0.0 | 0.0 | 0.00 | 0.48 | 0.48 | 91 | 1011.0 |
| 20260502200830 | 11 | 186 | 0.0 | 0.0 | 0.00 | 0.48 | 0.48 | 91 | 1011.0 |
| 20260502200330 | 11 | 186 | 0.0 | 0.0 | 0.00 | 0.48 | 0.48 | 91 | 1011.0 |
| 20260502195828 | 11 | 186 | 0.0 | 0.0 | 0.00 | 0.48 | 0.48 | 91 | 1010.9 |
| 20260502195329 | 11 | 186 | 0.0 | 0.0 | 0.00 | 0.48 | 0.48 | 91 | 1010.9 |
| 20260502194826 | 11 | 186 | 0.0 | 0.0 | 0.00 | 0.48 | 0.48 | 91 | 1011.0 |
| 20260502194325 | 11 | 186 | 0.0 | 0.0 | 0.00 | 0.48 | 0.48 | 91 | 1011.0 |
| 20260502193822 | 11 | 186 | 0.0 | 0.0 | 0.00 | 0.48 | 0.48 | 91 | 1011.1 |
| 20260502193323 | 11 | 186 | 0.0 | 0.0 | 0.00 | 0.48 | 0.48 | 91 | 1011.1 |
| 20260502192818 | 11 | 186 | 0.0 | 0.0 | 0.00 | 0.48 | 0.48 | 91 | 1011.2 |
| 20260502192316 | 11 | 186 | 0.0 | 0.0 | 0.00 | 0.48 | 0.48 | 91 | 1011.1 |
| 20260502191814 | 11 | 186 | 0.0 | 0.0 | 0.00 | 0.48 | 0.48 | 91 | 1011.2 |
| 20260502191315 | 11 | 186 | 0.0 | 0.0 | 0.00 | 0.48 | 0.48 | 91 | 1011.2 |
| 20260502190814 | 11 | 186 | 0.0 | 0.0 | 0.00 | 0.48 | 0.48 | 91 | 1011.1 |
| 20260502190312 | 11 | 186 | 0.0 | 0.0 | 0.00 | 0.48 | 0.48 | 91 | 1011.0 |
| 20260502185810 | 11 | 186 | 0.0 | 0.0 | 0.00 | 0.48 | 0.48 | 91 | 1011.0 |
| 20260502185309 | 12 | 186 | 0.0 | 0.0 | 0.00 | 0.48 | 0.48 | 91 | 1011.0 |
| 20260502184808 | 12 | 186 | 0.0 | 0.0 | 0.00 | 0.48 | 0.48 | 91 | 1011.0 |
| 20260502184308 | 12 | 186 | 0.0 | 0.0 | 0.00 | 0.48 | 0.48 | 91 | 1011.1 |
| 20260502183806 | 12 | 186 | 0.0 | 0.0 | 0.00 | 0.48 | 0.48 | 91 | 1011.0 |
| 20260502183304 | 12 | 186 | 0.0 | 0.0 | 0.00 | 0.48 | 0.48 | 91 | 1011.1 |
| 20260502182804 | 12 | 186 | 0.0 | 0.0 | 0.00 | 0.48 | 0.48 | 91 | 1011.0 |
| 20260502182305 | 12 | 186 | 0.0 | 0.0 | 0.00 | 0.48 | 0.48 | 90 | 1011.1 |
| 20260502181805 | 12 | 186 | 0.0 | 0.0 | 0.00 | 0.48 | 0.48 | 91 | 1011.2 |
| 20260502181304 | 12 | 186 | 0.0 | 0.0 | 0.00 | 0.48 | 0.48 | 90 | 1011.1 |
| 20260502180801 | 12 | 186 | 0.0 | 0.0 | 0.00 | 0.48 | 0.48 | 90 | 1011.1 |
| 20260502180254 | 12 | 186 | 0.0 | 0.0 | 0.00 | 0.48 | 0.48 | 90 | 1011.2 |
| 20260502170232 | 12 | 166 | 0.0 | 0.0 | 0.00 | 0.48 | 0.48 | 90 | 1011.7 |
| 20260502164230 | 12 | 182 | 0.0 | 1.6 | 0.08 | 0.48 | 0.48 | 89 | 1011.9 |
| 20260502163730 | 12 | 184 | 0.0 | 0.0 | 0.10 | 0.48 | 0.48 | 89 | 1011.8 |
| 20260502163230 | 12 | 184 | 0.0 | 0.0 | 0.10 | 0.48 | 0.48 | 89 | 1011.8 |
| 20260502162731 | 12 | 185 | 0.0 | 0.0 | 0.13 | 0.48 | 0.48 | 89 | 1011.9 |
| 20260502162231 | 12 | 185 | 0.0 | 0.0 | 0.15 | 0.48 | 0.48 | 89 | 1012.1 |
| 20260502161730 | 12 | 185 | 0.0 | 0.0 | 0.15 | 0.48 | 0.48 | 89 | 1012.1 |
| 20260502161229 | 12 | 185 | 0.0 | 0.0 | 0.20 | 0.48 | 0.48 | 89 | 1012.1 |
| 20260502160731 | 12 | 185 | 0.0 | 0.0 | 0.23 | 0.48 | 0.48 | 88 | 1012.4 |
| 20260502160230 | 12 | 185 | 0.0 | 0.0 | 0.28 | 0.48 | 0.48 | 88 | 1012.4 |
| 20260502152227 | 12 | 211 | 0.0 | 0.0 | 0.33 | 0.33 | 0.33 | 87 | 1013.0 |
| 20260502151723 | 12 | 211 | 0.0 | 0.0 | 0.33 | 0.33 | 0.33 | 86 | 1013.0 |
| 20260502151221 | 13 | 211 | 0.0 | 0.0 | 0.28 | 0.28 | 0.28 | 86 | 1013.1 |
| 20260502150723 | 13 | 211 | 0.0 | 1.6 | 0.23 | 0.23 | 0.23 | 86 | 1013.2 |
| 20260502150222 | 13 | 214 | 0.0 | 3.2 | 0.20 | 0.20 | 0.20 | 85 | 1013.3 |
| 20260502130708 | 18 | 262 | 0.0 | 1.6 | 0.00 | 0.00 | 0.00 | 60 | 1014.4 |
| 20260502130205 | 18 | 262 | 0.0 | 1.6 | 0.00 | 0.00 | 0.00 | 61 | 1014.4 |
| 20260502123703 | 18 | 264 | 0.0 | 3.2 | 0.00 | 0.00 | 0.00 | 61 | 1015.0 |
| 20260502123204 | 18 | 262 | 0.0 | 3.2 | 0.00 | 0.00 | 0.00 | 63 | 1015.0 |
| 20260502122702 | 18 | 264 | 0.0 | 1.6 | 0.00 | 0.00 | 0.00 | 62 | 1015.1 |
| 20260502122204 | 18 | 257 | 0.0 | 1.6 | 0.00 | 0.00 | 0.00 | 63 | 1015.1 |
| 20260502121704 | 18 | 257 | 0.0 | 1.6 | 0.00 | 0.00 | 0.00 | 62 | 1015.2 |
| 20260502121159 | 18 | 257 | 0.0 | 1.6 | 0.00 | 0.00 | 0.00 | 63 | 1015.3 |
| 20260502120654 | 18 | 264 | 0.0 | 3.2 | 0.00 | 0.00 | 0.00 | 61 | 1015.3 |
| 20260502120148 | 19 | 264 | 0.0 | 3.2 | 0.00 | 0.00 | 0.00 | 62 | 1015.4 |
| 20260502115641 | 19 | 218 | 0.0 | 1.6 | 0.00 | 0.00 | 0.00 | 60 | 1015.5 |
| 20260502115139 | 19 | 217 | 0.0 | 1.6 | 0.00 | 0.00 | 0.00 | 60 | 1015.7 |
| 20260502114640 | 18 | 217 | 0.0 | 1.6 | 0.00 | 0.00 | 0.00 | 60 | 1015.5 |
| 20260502114138 | 18 | 217 | 0.0 | 1.6 | 0.00 | 0.00 | 0.00 | 61 | 1015.7 |
| 20260502113635 | 18 | 217 | 0.0 | 1.6 | 0.00 | 0.00 | 0.00 | 63 | 1015.7 |
| 20260502113134 | 18 | 210 | 0.0 | 1.6 | 0.00 | 0.00 | 0.00 | 63 | 1015.8 |
| 20260502112631 | 18 | 224 | 0.0 | 1.6 | 0.00 | 0.00 | 0.00 | 65 | 1015.7 |
| 20260502112132 | 18 | 220 | 0.0 | 1.6 | 0.00 | 0.00 | 0.00 | 65 | 1015.8 |
| 20260502111631 | 17 | 155 | 0.0 | 1.6 | 0.00 | 0.00 | 0.00 | 65 | 1016.0 |
| 20260502111133 | 17 | 155 | 0.0 | 3.2 | 0.00 | 0.00 | 0.00 | 63 | 1016.0 |
| 20260502110630 | 17 | 151 | 0.0 | 3.2 | 0.00 | 0.00 | 0.00 | 64 | 1016.0 |
| 20260502110131 | 17 | 143 | 0.0 | 3.2 | 0.00 | 0.00 | 0.00 | 64 | 1016.0 |
| 20260502105631 | 17 | 142 | 0.0 | 3.2 | 0.00 | 0.00 | 0.00 | 64 | 1016.1 |
| 20260502105132 | 17 | 146 | 0.0 | 3.2 | 0.00 | 0.00 | 0.00 | 64 | 1016.3 |
| 20260502104630 | 17 | 224 | 0.0 | 4.8 | 0.00 | 0.00 | 0.00 | 64 | 1016.3 |
| 20260502104131 | 18 | 264 | 0.0 | 4.8 | 0.00 | 0.00 | 0.00 | 63 | 1016.4 |
| 20260502103630 | 18 | 146 | 0.0 | 3.2 | 0.00 | 0.00 | 0.00 | 63 | 1016.6 |
| 20260502103130 | 18 | 218 | 0.0 | 3.2 | 0.00 | 0.00 | 0.00 | 64 | 1016.7 |
| 20260502102635 | 17 | 219 | 0.0 | 1.6 | 0.00 | 0.00 | 0.00 | 63 | 1016.7 |
| 20260502102134 | 17 | 219 | 0.0 | 3.2 | 0.00 | 0.00 | 0.00 | 64 | 1016.7 |
| 20260502101628 | 17 | 217 | 1.6 | 4.8 | 0.00 | 0.00 | 0.00 | 64 | 1016.8 |
| 20260502101117 | 17 | 269 | 1.6 | 4.8 | 0.00 | 0.00 | 0.00 | 64 | 1016.7 |
| 20260502100611 | 18 | 264 | 0.0 | 4.8 | 0.00 | 0.00 | 0.00 | 63 | 1016.8 |
| 20260502100105 | 17 | 260 | 0.0 | 4.8 | 0.00 | 0.00 | 0.00 | 66 | 1016.8 |
| 20260502091104 | 15 | 149 | 0.0 | 3.2 | 0.00 | 0.00 | 0.00 | 71 | 1017.4 |
| 20260502090603 | 15 | 182 | 0.0 | 3.2 | 0.00 | 0.00 | 0.00 | 70 | 1017.3 |
| 20260502090104 | 15 | 173 | 0.0 | 3.2 | 0.00 | 0.00 | 0.00 | 71 | 1017.3 |
| 20260502071044 | 11 | 246 | 0.0 | 1.6 | 0.00 | 0.00 | 0.00 | 88 | 1018.0 |
| 20260502070543 | 11 | 246 | 0.0 | 1.6 | 0.00 | 0.00 | 0.00 | 89 | 1017.9 |
| 20260502070043 | 11 | 246 | 0.0 | 1.6 | 0.00 | 0.00 | 0.00 | 90 | 1017.9 |
| 20260502065543 | 11 | 246 | 0.0 | 0.0 | 0.00 | 0.00 | 0.00 | 91 | 1017.9 |
| 20260502065038 | 11 | 246 | 0.0 | 0.0 | 0.00 | 0.00 | 0.00 | 91 | 1018.0 |
| 20260502064534 | 11 | 246 | 0.0 | 0.0 | 0.00 | 0.00 | 0.00 | 92 | 1018.0 |
| 20260502064033 | 10 | 246 | 0.0 | 0.0 | 0.00 | 0.00 | 0.00 | 92 | 1018.0 |
| 20260502063533 | 10 | 246 | 0.0 | 0.0 | 0.00 | 0.00 | 0.00 | 92 | 1017.9 |
| 20260502063031 | 10 | 246 | 0.0 | 0.0 | 0.00 | 0.00 | 0.00 | 93 | 1018.0 |
| 20260502062531 | 10 | 246 | 0.0 | 0.0 | 0.00 | 0.00 | 0.00 | 93 | 1018.0 |
| 20260502062031 | 9 | 246 | 0.0 | 0.0 | 0.00 | 0.00 | 0.00 | 93 | 1018.0 |
| 20260502061531 | 8 | 246 | 0.0 | 0.0 | 0.00 | 0.00 | 0.00 | 92 | 1018.1 |
| 20260502061031 | 8 | 246 | 0.0 | 0.0 | 0.00 | 0.00 | 0.00 | 92 | 1018.0 |
| 20260502060531 | 8 | 246 | 0.0 | 0.0 | 0.00 | 0.00 | 0.00 | 92 | 1018.1 |
| 20260502060031 | 7 | 246 | 0.0 | 0.0 | 0.00 | 0.00 | 0.00 | 92 | 1018.2 |
| 20260502055532 | 7 | 246 | 0.0 | 0.0 | 0.00 | 0.00 | 0.00 | 92 | 1018.1 |
| 20260502055031 | 7 | 246 | 0.0 | 0.0 | 0.00 | 0.00 | 0.00 | 92 | 1018.1 |
| 20260502054529 | 7 | 246 | 0.0 | 0.0 | 0.00 | 0.00 | 0.00 | 92 | 1018.0 |
| 20260502054029 | 7 | 246 | 0.0 | 0.0 | 0.00 | 0.00 | 0.00 | 92 | 1018.1 |
| 20260502053529 | 7 | 246 | 0.0 | 0.0 | 0.00 | 0.00 | 0.00 | 92 | 1018.0 |
| 20260502053029 | 7 | 246 | 0.0 | 0.0 | 0.00 | 0.00 | 0.00 | 92 | 1018.1 |
| 20260502052529 | 7 | 246 | 0.0 | 0.0 | 0.00 | 0.00 | 0.00 | 92 | 1018.2 |
| 20260502052029 | 7 | 246 | 0.0 | 0.0 | 0.00 | 0.00 | 0.00 | 92 | 1018.2 |
| 20260502051529 | 6 | 246 | 0.0 | 0.0 | 0.00 | 0.00 | 0.00 | 92 | 1018.0 |
| 20260502051029 | 6 | 246 | 0.0 | 0.0 | 0.00 | 0.00 | 0.00 | 91 | 1018.0 |
| 20260502050529 | 7 | 246 | 0.0 | 0.0 | 0.00 | 0.00 | 0.00 | 91 | 1018.1 |
| 20260502050025 | 7 | 246 | 0.0 | 0.0 | 0.00 | 0.00 | 0.00 | 91 | 1018.0 |
| 20260502045526 | 7 | 246 | 0.0 | 0.0 | 0.00 | 0.00 | 0.00 | 91 | 1018.1 |
| 20260502045025 | 7 | 246 | 0.0 | 0.0 | 0.00 | 0.00 | 0.00 | 91 | 1018.0 |
| 20260502044539 | 7 | 246 | 0.0 | 0.0 | 0.00 | 0.00 | 0.00 | 91 | 1018.0 |
| 20260502044025 | 7 | 246 | 0.0 | 0.0 | 0.00 | 0.00 | 0.00 | 92 | 1018.0 |
| 20260502043525 | 7 | 246 | 0.0 | 0.0 | 0.00 | 0.00 | 0.00 | 92 | 1018.1 |
| 20260502043025 | 7 | 246 | 0.0 | 0.0 | 0.00 | 0.00 | 0.00 | 92 | 1018.0 |
| 20260502042525 | 7 | 246 | 0.0 | 0.0 | 0.00 | 0.00 | 0.00 | 92 | 1017.9 |
| 20260502042025 | 7 | 246 | 0.0 | 0.0 | 0.00 | 0.00 | 0.00 | 92 | 1018.1 |
| 20260502041521 | 7 | 246 | 0.0 | 0.0 | 0.00 | 0.00 | 0.00 | 92 | 1018.1 |
| 20260502041019 | 7 | 246 | 0.0 | 0.0 | 0.00 | 0.00 | 0.00 | 92 | 1018.1 |
| 20260502040517 | 7 | 246 | 0.0 | 0.0 | 0.00 | 0.00 | 0.00 | 91 | 1018.2 |
| 20260502040015 | 7 | 246 | 0.0 | 0.0 | 0.00 | 0.00 | 0.00 | 91 | 1018.3 |
| 20260502035513 | 7 | 246 | 0.0 | 0.0 | 0.00 | 0.00 | 0.00 | 91 | 1018.3 |
| 20260502035012 | 7 | 246 | 0.0 | 0.0 | 0.00 | 0.00 | 0.00 | 91 | 1018.3 |
| 20260502034513 | 7 | 246 | 0.0 | 0.0 | 0.00 | 0.00 | 0.00 | 91 | 1018.3 |
| 20260502034011 | 7 | 246 | 0.0 | 0.0 | 0.00 | 0.00 | 0.00 | 92 | 1018.5 |
| 20260502033509 | 7 | 246 | 0.0 | 0.0 | 0.00 | 0.00 | 0.00 | 92 | 1018.5 |
| 20260502033009 | 7 | 246 | 0.0 | 0.0 | 0.00 | 0.00 | 0.00 | 92 | 1018.4 |
| 20260502032509 | 7 | 246 | 0.0 | 0.0 | 0.00 | 0.00 | 0.00 | 92 | 1018.5 |
| 20260502032007 | 7 | 246 | 0.0 | 0.0 | 0.00 | 0.00 | 0.00 | 92 | 1018.5 |
| 20260502031504 | 6 | 246 | 0.0 | 0.0 | 0.00 | 0.00 | 0.00 | 91 | 1018.7 |
| 20260502031005 | 6 | 246 | 0.0 | 0.0 | 0.00 | 0.00 | 0.00 | 91 | 1018.6 |
| 20260502030505 | 6 | 246 | 0.0 | 0.0 | 0.00 | 0.00 | 0.00 | 91 | 1018.6 |
| 20260502030008 | 6 | 246 | 0.0 | 0.0 | 0.00 | 0.00 | 0.00 | 91 | 1018.7 |
| 20260502025505 | 6 | 246 | 0.0 | 0.0 | 0.00 | 0.00 | 0.00 | 91 | 1018.7 |
| 20260502025004 | 6 | 246 | 0.0 | 0.0 | 0.00 | 0.00 | 0.00 | 91 | 1018.7 |
| 20260502024503 | 6 | 246 | 0.0 | 0.0 | 0.00 | 0.00 | 0.00 | 91 | 1018.6 |
| 20260502024005 | 6 | 246 | 0.0 | 0.0 | 0.00 | 0.00 | 0.00 | 91 | 1018.8 |
| 20260502023457 | 6 | 246 | 0.0 | 0.0 | 0.00 | 0.00 | 0.00 | 91 | 1018.9 |
| 20260502022952 | 7 | 246 | 0.0 | 0.0 | 0.00 | 0.00 | 0.00 | 91 | 1018.8 |
| 20260502022444 | 7 | 246 | 0.0 | 0.0 | 0.00 | 0.00 | 0.00 | 91 | 1018.8 |
| 20260502021940 | 7 | 246 | 0.0 | 0.0 | 0.00 | 0.00 | 0.00 | 91 | 1018.8 |
| 20260502021440 | 7 | 246 | 0.0 | 0.0 | 0.00 | 0.00 | 0.00 | 91 | 1018.9 |
| 20260502020941 | 7 | 246 | 0.0 | 0.0 | 0.00 | 0.00 | 0.00 | 91 | 1018.9 |
| 20260502020439 | 7 | 246 | 0.0 | 0.0 | 0.00 | 0.00 | 0.00 | 91 | 1018.9 |
| 20260502015935 | 7 | 246 | 0.0 | 0.0 | 0.00 | 0.00 | 0.00 | 91 | 1018.9 |
| 20260502015434 | 7 | 246 | 0.0 | 0.0 | 0.00 | 0.00 | 0.00 | 91 | 1019.1 |
| 20260502014935 | 7 | 246 | 0.0 | 0.0 | 0.00 | 0.00 | 0.00 | 91 | 1019.2 |
| 20260502014432 | 7 | 246 | 0.0 | 0.0 | 0.00 | 0.00 | 0.00 | 91 | 1019.2 |
| 20260502013932 | 6 | 246 | 0.0 | 0.0 | 0.00 | 0.00 | 0.00 | 91 | 1019.2 |
| 20260502013429 | 6 | 246 | 0.0 | 0.0 | 0.00 | 0.00 | 0.00 | 91 | 1019.4 |
| 20260502012926 | 6 | 246 | 0.0 | 0.0 | 0.00 | 0.00 | 0.00 | 90 | 1019.3 |
| 20260502011923 | 6 | 246 | 0.0 | 0.0 | 0.00 | 0.00 | 0.00 | 90 | 1019.2 |
| 20260502011421 | 7 | 246 | 0.0 | 0.0 | 0.00 | 0.00 | 0.00 | 90 | 1019.3 |
| 20260502010919 | 7 | 246 | 0.0 | 0.0 | 0.00 | 0.00 | 0.00 | 91 | 1019.3 |
| 20260502010416 | 7 | 246 | 0.0 | 0.0 | 0.00 | 0.00 | 0.00 | 90 | 1019.2 |
| 20260502005918 | 7 | 246 | 0.0 | 0.0 | 0.00 | 0.00 | 0.00 | 90 | 1019.2 |
| 20260502005412 | 7 | 246 | 0.0 | 0.0 | 0.00 | 0.00 | 0.00 | 90 | 1019.3 |
| 20260502004911 | 7 | 246 | 0.0 | 0.0 | 0.00 | 0.00 | 0.00 | 90 | 1019.4 |
| 20260502004408 | 7 | 246 | 0.0 | 0.0 | 0.00 | 0.00 | 0.00 | 90 | 1019.5 |
| 20260502003907 | 7 | 246 | 0.0 | 0.0 | 0.00 | 0.00 | 0.00 | 90 | 1019.5 |
| 20260502003403 | 7 | 246 | 0.0 | 0.0 | 0.00 | 0.00 | 0.00 | 90 | 1019.4 |
| 20260502002902 | 7 | 246 | 0.0 | 0.0 | 0.00 | 0.00 | 0.00 | 90 | 1019.5 |
| 20260502002401 | 7 | 246 | 0.0 | 0.0 | 0.00 | 0.00 | 0.00 | 90 | 1019.4 |
| 20260502001854 | 7 | 246 | 0.0 | 0.0 | 0.00 | 0.00 | 0.00 | 90 | 1019.3 |
| 20260502001348 | 7 | 246 | 0.0 | 0.0 | 0.00 | 0.00 | 0.00 | 90 | 1019.4 |
| 20260502000848 | 7 | 246 | 0.0 | 0.0 | 0.00 | 0.00 | 0.00 | 90 | 1019.5 |
| 20260502000347 | 7 | 246 | 0.0 | 0.0 | 0.00 | 0.00 | 0.00 | 90 | 1019.5 |
| 20260501235846 | 7 | 246 | 0.0 | 0.0 | 0.00 | 0.00 | 0.00 | 90 | 1019.6 |
| 20260501235346 | 7 | 246 | 0.0 | 0.0 | 0.00 | 0.00 | 0.00 | 90 | 1019.6 |
| 20260501234845 | 7 | 246 | 0.0 | 0.0 | 0.00 | 0.00 | 0.00 | 90 | 1019.8 |
| 20260501234342 | 8 | 246 | 0.0 | 0.0 | 0.00 | 0.00 | 0.00 | 90 | 1019.8 |
| 20260501233840 | 8 | 246 | 0.0 | 0.0 | 0.00 | 0.00 | 0.00 | 90 | 1019.9 |
| 20260501233338 | 8 | 246 | 0.0 | 0.0 | 0.00 | 0.00 | 0.00 | 90 | 1019.8 |
| 20260501232838 | 8 | 246 | 0.0 | 0.0 | 0.00 | 0.00 | 0.00 | 90 | 1019.9 |
| 20260501232338 | 8 | 246 | 0.0 | 0.0 | 0.00 | 0.00 | 0.00 | 90 | 1020.0 |
| 20260501231836 | 8 | 246 | 0.0 | 0.0 | 0.00 | 0.00 | 0.00 | 90 | 1020.1 |
| 20260501231334 | 8 | 246 | 0.0 | 0.0 | 0.00 | 0.00 | 0.00 | 90 | 1020.1 |
| 20260501230833 | 8 | 246 | 0.0 | 0.0 | 0.00 | 0.00 | 0.00 | 90 | 1020.1 |
| 20260501230333 | 8 | 246 | 0.0 | 0.0 | 0.00 | 0.00 | 0.00 | 90 | 1020.2 |
| 20260501225830 | 8 | 246 | 0.0 | 0.0 | 0.00 | 0.00 | 0.00 | 90 | 1020.2 |
| 20260501225331 | 8 | 246 | 0.0 | 0.0 | 0.00 | 0.00 | 0.00 | 90 | 1020.2 |
| 20260501224830 | 8 | 246 | 0.0 | 0.0 | 0.00 | 0.00 | 0.00 | 90 | 1020.2 |
| 20260501224330 | 8 | 246 | 0.0 | 0.0 | 0.00 | 0.00 | 0.00 | 89 | 1020.2 |
| 20260501223831 | 8 | 246 | 0.0 | 0.0 | 0.00 | 0.00 | 0.00 | 89 | 1020.2 |
| 20260501223331 | 8 | 246 | 0.0 | 0.0 | 0.00 | 0.00 | 0.00 | 89 | 1020.2 |
| 20260501222825 | 9 | 246 | 0.0 | 0.0 | 0.00 | 0.00 | 0.00 | 90 | 1020.1 |
| 20260501222318 | 9 | 246 | 0.0 | 0.0 | 0.00 | 0.00 | 0.00 | 90 | 1020.3 |
| 20260501221814 | 9 | 246 | 0.0 | 0.0 | 0.00 | 0.00 | 0.00 | 90 | 1020.1 |
| 20260501221314 | 9 | 246 | 0.0 | 0.0 | 0.00 | 0.00 | 0.00 | 90 | 1020.1 |
| 20260501220815 | 9 | 246 | 0.0 | 0.0 | 0.00 | 0.00 | 0.00 | 90 | 1020.0 |
| 20260501220315 | 9 | 246 | 0.0 | 0.0 | 0.00 | 0.00 | 0.00 | 89 | 1020.1 |
| 20260501215814 | 9 | 246 | 0.0 | 0.0 | 0.00 | 0.00 | 0.00 | 89 | 1020.0 |
| 20260501215312 | 9 | 246 | 0.0 | 0.0 | 0.00 | 0.00 | 0.00 | 89 | 1020.0 |
| 20260501214811 | 9 | 246 | 0.0 | 0.0 | 0.00 | 0.00 | 0.00 | 89 | 1020.0 |
| 20260501214308 | 9 | 246 | 0.0 | 0.0 | 0.00 | 0.00 | 0.00 | 89 | 1019.9 |
| 20260501213808 | 9 | 246 | 0.0 | 0.0 | 0.00 | 0.00 | 0.00 | 89 | 1019.8 |
| 20260501213308 | 9 | 246 | 0.0 | 0.0 | 0.00 | 0.00 | 0.00 | 88 | 1019.9 |
| 20260501212807 | 10 | 246 | 0.0 | 0.0 | 0.00 | 0.00 | 0.00 | 88 | 1019.9 |
| 20260501212307 | 10 | 246 | 0.0 | 0.0 | 0.00 | 0.00 | 0.00 | 88 | 1019.9 |
| 20260501211807 | 10 | 246 | 0.0 | 0.0 | 0.00 | 0.00 | 0.00 | 88 | 1019.9 |
| 20260501211315 | 10 | 246 | 0.0 | 0.0 | 0.00 | 0.00 | 0.00 | 88 | 1019.9 |